Indianapolis, IN

7:39 PM EST on December 15, 2019 (GMT -0500)
Indianapolis Terry

Weather History for KTYQ - November, 2019

Change the Weather History Date:

Thursday, November 21, 2019

  Actual Average (KEYE) Record (KEYE)
Temperature  
Mean Temperature 44 °F -  
Max Temperature 50 °F 47 °F 65 °F (2010)
Min Temperature 39 °F 32 °F 12 °F (2014)
Degree Days  
Heating Degree Days 20    
Moisture  
Dew Point 44 °F    
Average Humidity 97    
Maximum Humidity 100    
Minimum Humidity 77    
Precipitation  
Precipitation 0.03 in - - ()
Sea Level Pressure  
Sea Level Pressure 29.98 in    
Wind  
Wind Speed 12 mph ()    
Max Wind Speed 24 mph    
Max Gust Speed 36 mph    
Visibility 8.2 miles    
Events Rain    
Averages and records for this station are not official NWS values.
T = Trace of Precipitation, MM = Missing Value Source: Averaged Metar Reports

Daily Weather History Graph

Daily Weather History Graph

Search for Another Location

Airport or City:

Astronomy

Nov. 21, 2019 Rise Set
Actual Time 7:36 AM EST 5:24 PM EST
Civil Twilight 7:07 AM EST 5:53 PM EST
Nautical Twilight 6:34 AM EST 6:27 PM EST
Astronomical Twilight 6:02 AM EST 6:59 PM EST
Moon 1:31 AM EST (11/21) 2:53 PM EST (11/21)
Length of Visible Light 10h 46m
Length of Day
9h 47m
Waning Crescent, 30% of the Moon is Illuminated
Nov 21
Waning Crescent
Nov 26
New
Dec 4
First Quarter
Dec 12
Full
Dec 18
Last Quarter

Hourly Weather History & Observations

Time (EST) Temp. Windchill Dew Point Humidity Pressure Visibility Wind Dir Wind Speed Gust Speed Precip Events Conditions
12:15 AM 39.6 °F 34.0 °F 39.6 °F 100% 30.15 in 10.0 mi South 8.1 mph - N/A   Clear
12:35 AM 39.4 °F 33.2 °F 39.4 °F 100% 30.15 in 10.0 mi SSE 9.2 mph - N/A   Clear
12:55 AM 39.2 °F 33.0 °F 39.2 °F 100% 30.15 in 10.0 mi South 9.2 mph - N/A   Clear
1:15 AM 39.7 °F 33.7 °F 39.7 °F 100% 30.15 in 10.0 mi South 9.2 mph - N/A   Clear
1:35 AM 39.7 °F 33.2 °F 39.7 °F 100% 30.14 in 10.0 mi SSE 10.4 mph 16.1 mph N/A   Clear
1:55 AM 39.7 °F 32.7 °F 39.7 °F 100% 30.14 in 10.0 mi SSE 11.5 mph - N/A   Clear
2:15 AM 39.6 °F 32.5 °F 39.6 °F 100% 30.12 in 10.0 mi SSE 11.5 mph - N/A   Clear
2:35 AM 39.6 °F 32.5 °F 39.6 °F 100% 30.11 in 10.0 mi SSE 11.5 mph - N/A   Clear
2:55 AM 39.6 °F 32.1 °F 39.6 °F 100% 30.11 in 10.0 mi SSE 12.7 mph - N/A   Clear
3:15 AM 39.9 °F 32.9 °F 39.9 °F 100% 30.11 in 10.0 mi SSE 11.5 mph - N/A   Clear
3:35 AM 40.1 °F 34.7 °F 40.1 °F 100% 30.11 in 10.0 mi South 8.1 mph - N/A   Clear
4:15 AM 40.5 °F 33.6 °F 40.5 °F 100% 30.09 in 10.0 mi South 11.5 mph 17.3 mph N/A   Clear
4:35 AM 40.5 °F 33.2 °F 40.5 °F 100% 30.09 in 10.0 mi South 12.7 mph - N/A   Clear
4:55 AM 40.6 °F 33.0 °F 40.6 °F 100% 30.08 in 10.0 mi South 13.8 mph 18.4 mph N/A   Scattered Clouds
5:15 AM 41.0 °F 33.5 °F 41.0 °F 100% 30.07 in 10.0 mi South 13.8 mph 17.3 mph N/A   Mostly Cloudy
5:35 AM 40.6 °F 33.4 °F 40.6 °F 100% 30.05 in 10.0 mi SSE 12.7 mph - N/A   Scattered Clouds
5:55 AM 40.6 °F 34.3 °F 40.6 °F 100% 30.05 in 10.0 mi SSE 10.4 mph - N/A   Scattered Clouds
6:15 AM 41.0 °F 34.3 °F 41.0 °F 100% 30.03 in 10.0 mi SSE 11.5 mph 16.1 mph N/A   Mostly Cloudy
6:35 AM 41.4 °F 34.3 °F 41.2 °F 99% 30.02 in 10.0 mi SSE 12.7 mph - N/A   Overcast
6:55 AM 41.7 °F 34.4 °F 41.2 °F 98% 30.03 in 10.0 mi South 13.8 mph 18.4 mph N/A   Overcast
7:15 AM 41.9 °F 34.6 °F 41.0 °F 97% 30.01 in 10.0 mi South 13.8 mph 17.3 mph N/A   Overcast
7:35 AM 42.6 °F 35.6 °F 40.6 °F 93% 30.01 in 10.0 mi South 13.8 mph 20.7 mph N/A   Overcast
7:55 AM 42.8 °F 35.1 °F 40.5 °F 91% 30.00 in 10.0 mi South 16.1 mph 23.0 mph N/A   Overcast
8:15 AM 43.7 °F 36.6 °F 40.1 °F 87% 30.00 in 10.0 mi South 15.0 mph - N/A   Overcast
8:35 AM 43.7 °F 36.6 °F 40.1 °F 87% 30.00 in 10.0 mi South 15.0 mph 21.9 mph N/A   Overcast
8:55 AM 43.9 °F 37.2 °F 40.1 °F 87% 29.99 in 10.0 mi South 13.8 mph 21.9 mph N/A   Overcast
9:15 AM 44.2 °F 37.3 °F 40.1 °F 85% 29.98 in 10.0 mi South 15.0 mph 23.0 mph N/A   Overcast
9:35 AM 44.6 °F 38.1 °F 41.0 °F 87% 29.98 in 10.0 mi South 13.8 mph - N/A Rain Light Rain
10:15 AM 46.4 °F 40.7 °F 40.8 °F 81% 29.97 in 10.0 mi South 12.7 mph 17.3 mph N/A   Mostly Cloudy
10:35 AM 46.8 °F - 41.0 °F 80% 29.96 in 10.0 mi South 13.8 mph - N/A   Mostly Cloudy
10:55 AM 47.5 °F - 43.0 °F 84% 29.95 in 10.0 mi South 15.0 mph 19.6 mph N/A Rain Light Rain
11:15 AM 50.2 °F - 43.3 °F 77% 29.94 in 10.0 mi SSW 17.3 mph 25.3 mph N/A   Overcast
11:35 AM 50.7 °F - 45.7 °F 83% 29.94 in 10.0 mi SSW 24.2 mph 31.1 mph N/A Rain Light Rain
11:55 AM 49.1 °F - 48.9 °F 99% 29.93 in 3.0 mi SSW 20.7 mph 26.5 mph N/A Rain Light Rain
12:15 PM 48.4 °F - 48.4 °F 100% 29.91 in 5.0 mi SSW 18.4 mph 31.1 mph N/A Rain Light Rain
12:35 PM 48.7 °F - 48.7 °F 100% 29.90 in 5.0 mi SSW 21.9 mph 35.7 mph 0.01 in Rain Light Rain
12:55 PM 48.4 °F - 48.4 °F 100% 29.89 in 7.0 mi SSW 21.9 mph 32.2 mph 0.01 in   Overcast
1:15 PM 48.2 °F - 48.2 °F 100% 29.87 in 10.0 mi SSW 24.2 mph 33.4 mph N/A   Overcast
1:35 PM 48.2 °F - 48.2 °F 100% 29.86 in 10.0 mi SSW 19.6 mph 32.2 mph N/A   Overcast
1:55 PM 48.7 °F - 48.7 °F 100% 29.86 in 10.0 mi SSW 18.4 mph 28.8 mph N/A   Overcast
2:15 PM 48.7 °F - 48.7 °F 100% 29.85 in 10.0 mi SSW 19.6 mph 28.8 mph N/A   Overcast
2:35 PM 48.9 °F - 48.9 °F 100% 29.85 in 5.0 mi SSW 18.4 mph 29.9 mph N/A   Overcast
2:55 PM 48.9 °F - 48.9 °F 100% 29.85 in 2.5 mi SSW 18.4 mph 31.1 mph N/A   Overcast
3:15 PM 49.1 °F - 49.1 °F 100% 29.85 in 2.0 mi SSW 19.6 mph 25.3 mph N/A   Overcast
3:35 PM 49.1 °F - 49.1 °F 100% 29.85 in 4.0 mi SW 20.7 mph 25.3 mph N/A   Overcast
3:55 PM 49.1 °F - 49.1 °F 100% 29.86 in 3.0 mi SW 17.3 mph 27.6 mph N/A   Overcast
4:15 PM 49.5 °F - 49.5 °F 100% 29.86 in 3.0 mi SW 20.7 mph 26.5 mph N/A   Overcast
4:35 PM 49.5 °F - 49.5 °F 100% 29.87 in 1.8 mi SW 18.4 mph 27.6 mph N/A Rain Rain
4:55 PM 49.5 °F - 49.5 °F 100% 29.88 in 1.5 mi SW 18.4 mph 23.0 mph N/A   Drizzle
5:15 PM 49.6 °F - 49.6 °F 100% 29.89 in 3.0 mi SW 12.7 mph 24.2 mph N/A   Drizzle
5:35 PM 50.0 °F - 50.0 °F 100% 29.89 in 5.0 mi SW 18.4 mph 24.2 mph N/A   Light Drizzle
5:55 PM 50.0 °F - 50.0 °F 100% 29.89 in 10.0 mi SW 20.7 mph 24.2 mph N/A   Overcast
6:15 PM 50.0 °F - 50.0 °F 100% 29.90 in 10.0 mi SW 15.0 mph 23.0 mph N/A   Overcast
6:35 PM 50.4 °F - 50.4 °F 100% 29.90 in 10.0 mi SW 17.3 mph 24.2 mph N/A   Overcast
6:55 PM 50.4 °F - 50.4 °F 100% 29.91 in 7.0 mi SW 17.3 mph 23.0 mph N/A   Drizzle
7:15 PM 50.4 °F - 50.4 °F 100% 29.91 in 5.0 mi WSW 12.7 mph 19.6 mph 0.01 in   Drizzle
7:35 PM 50.4 °F - 50.4 °F 100% 29.92 in 4.0 mi WSW 10.4 mph - 0.01 in   Drizzle
7:55 PM 49.3 °F - 49.3 °F 100% 29.94 in 7.0 mi West 9.2 mph 19.6 mph 0.01 in   Light Drizzle
8:15 PM 48.0 °F - 48.0 °F 100% 29.95 in 7.0 mi WNW 8.1 mph 16.1 mph N/A   Light Drizzle
8:35 PM 47.5 °F - 47.5 °F 100% 29.95 in 10.0 mi West 10.4 mph - N/A   Overcast
8:55 PM 47.3 °F - 47.3 °F 100% 29.95 in 10.0 mi WNW 9.2 mph 18.4 mph N/A   Overcast
9:15 PM 46.4 °F 40.1 °F 46.4 °F 100% 29.96 in 10.0 mi West 15.0 mph 21.9 mph 0.01 in   Overcast
9:35 PM 45.9 °F 40.4 °F 45.9 °F 100% 29.96 in 10.0 mi West 11.5 mph 20.7 mph 0.01 in   Overcast
9:55 PM 45.5 °F 39.9 °F 45.5 °F 100% 29.96 in 10.0 mi West 11.5 mph 19.6 mph 0.01 in   Overcast
10:15 PM 45.3 °F 40.1 °F 45.3 °F 100% 29.97 in 10.0 mi WNW 10.4 mph 16.1 mph N/A   Overcast
10:35 PM 43.7 °F 36.3 °F 43.7 °F 100% 29.97 in 10.0 mi NW 16.1 mph 19.6 mph N/A   Overcast
10:55 PM 41.9 °F 34.3 °F 41.9 °F 100% 29.98 in 5.0 mi WNW 15.0 mph 19.6 mph N/A   Overcast
11:15 PM 41.0 °F 33.9 °F 41.0 °F 100% 29.98 in 4.0 mi WNW 12.7 mph 19.6 mph N/A   Overcast
11:35 PM 40.5 °F 33.6 °F 40.5 °F 100% 29.98 in 4.0 mi WNW 11.5 mph 20.7 mph N/A   Overcast
11:55 PM 40.1 °F 33.6 °F 40.1 °F 100% 29.97 in 10.0 mi WNW 10.4 mph 18.4 mph N/A   Overcast